,,PA_Meas_PMT16A,,PR_Meas_QMR101_102,,RH_Meas_QMH101,,SR_Meas_QMS101,,TA_Meas_QMH101,,GenWind,,GenWind,
time,status,PA,status,PR,status,RH,status,SR,status,TA,status,DirAvg,status,SpdAvg,
2012-08-09, 00:00:04,VALID,917.233,VALID,0,VALID,66.9565,VALID,0,VALID,21.2079,VALID,150,VALID,0,
2012-08-09, 00:01:04,VALID,917.232,VALID,0,VALID,66.6515,VALID,0,VALID,21.1689,VALID,145,VALID,0,
2012-08-09, 00:02:04,VALID,917.243,VALID,0,VALID,66.7659,VALID,0,VALID,21.1673,VALID,153,VALID,0,
2012-08-09, 00:03:04,VALID,917.253,VALID,0,VALID,67.0403,VALID,0,VALID,21.1884,VALID,168,VALID,0,
2012-08-09, 00:04:04,VALID,917.243,VALID,0,VALID,66.9107,VALID,0,VALID,21.2274,VALID,155,VALID,0.283984,
2012-08-09, 00:05:04,VALID,917.235,VALID,0,VALID,66.4838,VALID,0,VALID,21.2274,VALID,147,VALID,0.180078,
2012-08-09, 00:06:04,VALID,917.214,VALID,0,VALID,66.5677,VALID,0,VALID,21.2876,VALID,141,VALID,0,
2012-08-09, 00:07:04,VALID,917.233,VALID,0,VALID,67.0708,VALID,0,VALID,21.2469,VALID,163,VALID,0,
2012-08-09, 00:08:04,VALID,917.202,VALID,0,VALID,66.8192,VALID,0,VALID,21.2274,VALID,128,VALID,0,
2012-08-09, 00:09:04,VALID,917.181,VALID,0,VALID,66.7506,VALID,0,VALID,21.2274,VALID,127,VALID,0,
2012-08-09, 00:10:04,VALID,917.195,VALID,0,VALID,66.8955,VALID,0,VALID,21.2274,VALID,128,VALID,0,
2012-08-09, 00:11:04,VALID,917.161,VALID,0,VALID,66.4305,VALID,0.107441,VALID,21.2258,VALID,127,VALID,0,
2012-08-09, 00:12:04,VALID,917.168,VALID,0,VALID,66.5295,VALID,0.107441,VALID,21.2437,VALID,127,VALID,0,
2012-08-09, 00:13:04,VALID,917.155,VALID,0,VALID,66.1484,VALID,0,VALID,21.2437,VALID,131,VALID,0,
2012-08-09, 00:14:04,VALID,917.154,VALID,0,VALID,66.9031,VALID,0,VALID,21.2437,VALID,122,VALID,0,
2012-08-09, 00:15:04,VALID,917.16,VALID,0,VALID,67.3986,VALID,0.107441,VALID,21.1868,VALID,117,VALID,0,
2012-08-09, 00:16:04,VALID,917.18,VALID,0,VALID,67.1166,VALID,0,VALID,21.1478,VALID,126,VALID,0,
2012-08-09, 00:17:04,VALID,917.147,VALID,0,VALID,67.5511,VALID,0,VALID,21.1478,VALID,114,VALID,0,
2012-08-09, 00:18:04,VALID,917.139,VALID,0,VALID,66.6363,VALID,0,VALID,21.1494,VALID,129,VALID,0,
2012-08-09, 00:19:04,VALID,917.113,VALID,0,VALID,66.5982,VALID,0.107441,VALID,21.1657,VALID,114,VALID,0,
2012-08-09, 00:20:04,VALID,917.103,VALID,0,VALID,67.3453,VALID,0,VALID,21.2258,VALID,123,VALID,0,
2012-08-09, 00:21:04,VALID,917.094,VALID,0,VALID,67.4139,VALID,0,VALID,21.2274,VALID,123,VALID,0,
2012-08-09, 00:22:05,VALID,917.047,VALID,0,VALID,66.3847,VALID,0,VALID,21.1868,VALID,123,VALID,0,
2012-08-09, 00:23:05,VALID,917.036,VALID,0,VALID,66.2932,VALID,0,VALID,21.2258,VALID,162,VALID,0,
2012-08-09, 00:24:05,VALID,917.002,VALID,0,VALID,66.339,VALID,0.107441,VALID,21.221,VALID,139,VALID,0,
2012-08-09, 00:25:05,VALID,916.999,VALID,0,VALID,67.3148,VALID,0,VALID,21.2421,VALID,139,VALID,0,
2012-08-09, 00:26:05,VALID,916.99,VALID,0,VALID,67.6045,VALID,0,VALID,21.1689,VALID,139,VALID,0,
2012-08-09, 00:27:05,VALID,917.003,VALID,0,VALID,69.1673,VALID,0,VALID,21.0908,VALID,162,VALID,0,
2012-08-09, 00:28:05,VALID,916.989,VALID,0,VALID,69.0072,VALID,0,VALID,20.9722,VALID,154,VALID,0,
2012-08-09, 00:29:05,VALID,916.96,VALID,0,VALID,67.9932,VALID,0,VALID,20.9542,VALID,133,VALID,0,
2012-08-09, 00:30:05,VALID,916.967,VALID,0,VALID,68.1381,VALID,0,VALID,21.0128,VALID,133,VALID,0,
2012-08-09, 00:31:05,VALID,916.95,VALID,0,VALID,69.213,VALID,0,VALID,21.0112,VALID,133,VALID,0,
2012-08-09, 00:32:05,VALID,916.904,VALID,0,VALID,68.7098,VALID,0,VALID,21.0128,VALID,133,VALID,0,
2012-08-09, 00:33:05,VALID,916.89,VALID,0,VALID,68.1381,VALID,0,VALID,20.9738,VALID,133,VALID,0,
2012-08-09, 00:34:05,VALID,916.893,VALID,0,VALID,68.6565,VALID,0,VALID,20.9542,VALID,133,VALID,0,
2012-08-09, 00:35:05,VALID,916.859,VALID,0,VALID,69.1825,VALID,0,VALID,20.9347,VALID,133,VALID,0,
2012-08-09, 00:36:05,VALID,916.824,VALID,0,VALID,68.4888,VALID,0,VALID,20.8551,VALID,140,VALID,0,
2012-08-09, 00:37:05,VALID,916.787,VALID,0,VALID,69.0377,VALID,0,VALID,20.9331,VALID,118,VALID,0,
2012-08-09, 00:38:05,VALID,916.778,VALID,0,VALID,69.0834,VALID,0,VALID,20.9331,VALID,116,VALID,0,
2012-08-09, 00:39:05,VALID,916.781,VALID,0,VALID,69.6323,VALID,0,VALID,20.9347,VALID,115,VALID,0,
2012-08-09, 00:40:05,VALID,916.733,VALID,0,VALID,69.0224,VALID,0,VALID,20.8746,VALID,126,VALID,0,
2012-08-09, 00:41:05,VALID,916.737,VALID,0,VALID,69.2435,VALID,0,VALID,20.8567,VALID,132,VALID,0,
2012-08-09, 00:42:05,VALID,916.676,VALID,0,VALID,68.9614,VALID,0,VALID,20.8762,VALID,132,VALID,0,
2012-08-09, 00:43:05,VALID,916.681,VALID,0,VALID,70.1431,VALID,0,VALID,20.8567,VALID,119,VALID,0,
2012-08-09, 00:44:05,VALID,916.674,VALID,0,VALID,69.4036,VALID,0,VALID,20.8356,VALID,141,VALID,0,
2012-08-09, 00:45:05,VALID,916.61,VALID,0,VALID,69.1596,VALID,0,VALID,20.8957,VALID,152,VALID,0,
2012-08-09, 00:46:05,VALID,916.59,VALID,0,VALID,68.4964,VALID,0,VALID,20.8973,VALID,137,VALID,0,
2012-08-09, 00:47:05,VALID,916.552,VALID,0,VALID,68.8471,VALID,0,VALID,20.8941,VALID,112,VALID,0,
2012-08-09, 00:48:05,VALID,916.546,VALID,0,VALID,69.0453,VALID,0,VALID,20.8957,VALID,152,VALID,0,
2012-08-09, 00:49:05,VALID,916.519,VALID,0,VALID,69.3655,VALID,0,VALID,20.9347,VALID,120,VALID,0,
2012-08-09, 00:50:05,VALID,916.493,VALID,0,VALID,68.7327,VALID,0,VALID,20.9347,VALID,134,VALID,0,
2012-08-09, 00:51:05,VALID,916.551,VALID,0,VALID,69.396,VALID,0,VALID,20.9527,VALID,164,VALID,0,
2012-08-09, 00:52:05,VALID,916.503,VALID,0,VALID,68.969,VALID,0,VALID,21.0128,VALID,132,VALID,0.0632813,
2012-08-09, 00:53:05,VALID,916.459,VALID,0,VALID,69.2054,VALID,0,VALID,21.0323,VALID,175,VALID,0.00429688,
2012-08-09, 00:54:05,VALID,916.45,VALID,0,VALID,68.9157,VALID,0,VALID,21.0518,VALID,136,VALID,0.00195313,
2012-08-09, 00:55:05,VALID,916.433,VALID,0,VALID,68.9386,VALID,0,VALID,21.1298,VALID,183,VALID,0.241797,
2012-08-09, 00:56:05,VALID,916.448,VALID,0,VALID,69.0986,VALID,0,VALID,21.1282,VALID,127,VALID,0,
2012-08-09, 00:57:05,VALID,916.449,VALID,0,VALID,69.0224,VALID,0,VALID,21.1494,VALID,148,VALID,0,
2012-08-09, 00:58:05,VALID,916.394,VALID,0,VALID,68.9995,VALID,0,VALID,21.1478,VALID,143,VALID,0.527734,
2012-08-09, 00:59:05,VALID,916.431,VALID,0,VALID,68.9233,VALID,0,VALID,21.1868,VALID,163,VALID,0,
2012-08-09, 01:00:05,VALID,916.421,VALID,0,VALID,68.9919,VALID,0,VALID,21.1884,VALID,164,VALID,0.00234375,
2012-08-09, 01:01:05,VALID,916.414,VALID,0,VALID,68.1076,VALID,0,VALID,21.2063,VALID,178,VALID,0,
2012-08-09, 01:02:05,VALID,916.437,VALID,0,VALID,68.7556,VALID,0,VALID,21.2859,VALID,153,VALID,0,
2012-08-09, 01:03:05,VALID,916.449,VALID,0,VALID,68.0085,VALID,0,VALID,21.2843,VALID,180,VALID,0,
2012-08-09, 01:04:05,VALID,916.434,VALID,0,VALID,68.4507,VALID,0,VALID,21.3445,VALID,172,VALID,0,
2012-08-09, 01:05:05,VALID,916.444,VALID,0,VALID,67.978,VALID,0,VALID,21.3055,VALID,172,VALID,0,
2012-08-09, 01:06:05,VALID,916.432,VALID,0,VALID,67.6959,VALID,0,VALID,21.3835,VALID,128,VALID,0,
2012-08-09, 01:07:05,VALID,916.421,VALID,0,VALID,67.6045,VALID,0,VALID,21.4616,VALID,179,VALID,0,
2012-08-09, 01:08:05,VALID,916.403,VALID,0,VALID,67.9094,VALID,0,VALID,21.4404,VALID,195,VALID,0,
2012-08-09, 01:09:05,VALID,916.403,VALID,0,VALID,67.856,VALID,0,VALID,21.4209,VALID,181,VALID,0,
2012-08-09, 01:10:05,VALID,916.4,VALID,0,VALID,68.4202,VALID,0,VALID,21.4209,VALID,170,VALID,0,
2012-08-09, 01:11:05,VALID,916.419,VALID,0,VALID,68.5116,VALID,0,VALID,21.3819,VALID,149,VALID,0,
2012-08-09, 01:12:05,VALID,916.393,VALID,0,VALID,68.0847,VALID,0,VALID,21.3429,VALID,171,VALID,0,
2012-08-09, 01:13:05,VALID,916.41,VALID,0,VALID,67.8941,VALID,0.107441,VALID,21.4209,VALID,144,VALID,0,
2012-08-09, 01:14:05,VALID,916.448,VALID,0,VALID,68.5193,VALID,0.107441,VALID,21.4583,VALID,128,VALID,0,
2012-08-09, 01:15:05,VALID,916.409,VALID,0,VALID,67.9323,VALID,0,VALID,21.4599,VALID,92,VALID,0,
2012-08-09, 01:16:05,VALID,916.414,VALID,0,VALID,67.5816,VALID,0,VALID,21.4599,VALID,161,VALID,0,
2012-08-09, 01:17:05,VALID,916.372,VALID,0,VALID,67.9856,VALID,0.107441,VALID,21.499,VALID,171,VALID,0,
2012-08-09, 01:18:05,VALID,916.365,VALID,0,VALID,68.6565,VALID,0,VALID,21.4404,VALID,171,VALID,0.126953,
2012-08-09, 01:19:05,VALID,916.344,VALID,0,VALID,68.6412,VALID,0.107441,VALID,21.3624,VALID,145,VALID,0,
2012-08-09, 01:20:05,VALID,916.333,VALID,0,VALID,68.8166,VALID,0.107441,VALID,21.3429,VALID,149,VALID,0,
2012-08-09, 01:21:05,VALID,916.319,VALID,0,VALID,68.7251,VALID,0.107441,VALID,21.3234,VALID,132,VALID,0,
2012-08-09, 01:22:05,VALID,916.337,VALID,0,VALID,68.9386,VALID,0.107441,VALID,21.3038,VALID,129,VALID,0,
2012-08-09, 01:23:05,VALID,916.293,VALID,0,VALID,68.3287,VALID,0,VALID,21.3429,VALID,122,VALID,0,
2012-08-09, 01:24:05,VALID,916.282,VALID,0,VALID,68.6184,VALID,0,VALID,21.3624,VALID,124,VALID,0,
2012-08-09, 01:25:05,VALID,916.294,VALID,0,VALID,69.2969,VALID,0,VALID,21.3819,VALID,105,VALID,0,
2012-08-09, 01:26:05,VALID,916.32,VALID,0,VALID,69.4493,VALID,0,VALID,21.2664,VALID,124,VALID,0,
2012-08-09, 01:27:05,VALID,916.283,VALID,0,VALID,69.1444,VALID,0,VALID,21.2258,VALID,125,VALID,0,
2012-08-09, 01:28:05,VALID,916.261,VALID,0,VALID,68.3363,VALID,0,VALID,21.2859,VALID,153,VALID,0,
2012-08-09, 01:29:05,VALID,916.299,VALID,0,VALID,68.3363,VALID,0,VALID,21.325,VALID,159,VALID,0,
2012-08-09, 01:30:05,VALID,916.269,VALID,0,VALID,68.7785,VALID,0,VALID,21.3429,VALID,111,VALID,0,
2012-08-09, 01:31:05,VALID,916.303,VALID,0,VALID,68.5421,VALID,0,VALID,21.3445,VALID,152,VALID,0,
2012-08-09, 01:32:05,VALID,916.262,VALID,0,VALID,69.0681,VALID,0,VALID,21.3445,VALID,135,VALID,0,
2012-08-09, 01:33:05,VALID,916.295,VALID,0,VALID,69.3121,VALID,0,VALID,21.2859,VALID,135,VALID,0,
2012-08-09, 01:34:05,VALID,916.266,VALID,0,VALID,69.9906,VALID,0,VALID,21.2274,VALID,135,VALID,0,
2012-08-09, 01:35:05,VALID,916.297,VALID,0,VALID,70.0439,VALID,0,VALID,21.2079,VALID,135,VALID,0,
2012-08-09, 01:36:05,VALID,916.255,VALID,0,VALID,70.3108,VALID,0,VALID,21.1689,VALID,135,VALID,0,
2012-08-09, 01:37:05,VALID,916.272,VALID,0,VALID,70.0211,VALID,0,VALID,21.0908,VALID,135,VALID,0,
2012-08-09, 01:38:05,VALID,916.257,VALID,0,VALID,69.9296,VALID,0,VALID,21.0128,VALID,135,VALID,0,
2012-08-09, 01:39:05,VALID,916.234,VALID,0,VALID,70.3717,VALID,0,VALID,21.0323,VALID,134,VALID,0,
2012-08-09, 01:40:05,VALID,916.238,VALID,0,VALID,70.6919,VALID,0,VALID,20.9933,VALID,146,VALID,0,
2012-08-09, 01:41:05,VALID,916.236,VALID,0,VALID,70.57,VALID,0,VALID,20.9542,VALID,112,VALID,0,
2012-08-09, 01:42:05,VALID,916.21,VALID,0,VALID,70.326,VALID,0,VALID,20.9933,VALID,153,VALID,0,
2012-08-09, 01:43:05,VALID,916.22,VALID,0,VALID,70.0135,VALID,0,VALID,21.0323,VALID,144,VALID,0,
2012-08-09, 01:44:05,VALID,916.207,VALID,0,VALID,70.0135,VALID,0,VALID,21.0518,VALID,148,VALID,0,
2012-08-09, 01:45:05,VALID,916.188,VALID,0,VALID,70.1964,VALID,0,VALID,21.0128,VALID,163,VALID,0,
2012-08-09, 01:46:05,VALID,916.198,VALID,0,VALID,71.0197,VALID,0,VALID,20.9738,VALID,160,VALID,0,
2012-08-09, 01:47:05,VALID,916.199,VALID,0,VALID,70.509,VALID,0,VALID,20.9542,VALID,168,VALID,0,
2012-08-09, 01:48:05,VALID,916.212,VALID,0,VALID,71.622,VALID,0,VALID,20.9542,VALID,167,VALID,0,
2012-08-09, 01:49:05,VALID,916.197,VALID,0,VALID,70.6614,VALID,0,VALID,20.9152,VALID,160,VALID,0,
2012-08-09, 01:50:05,VALID,916.189,VALID,0,VALID,69.8991,VALID,0,VALID,20.9738,VALID,168,VALID,0,
2012-08-09, 01:51:05,VALID,916.184,VALID,0,VALID,69.6094,VALID,0,VALID,21.0713,VALID,159,VALID,0,
2012-08-09, 01:52:05,VALID,916.173,VALID,0,VALID,70.1735,VALID,0,VALID,21.0713,VALID,159,VALID,0,
2012-08-09, 01:53:05,VALID,916.174,VALID,0,VALID,70.3413,VALID,0,VALID,20.9933,VALID,159,VALID,0,
2012-08-09, 01:54:05,VALID,916.159,VALID,0,VALID,69.9906,VALID,0,VALID,20.9738,VALID,136,VALID,0,
2012-08-09, 01:55:05,VALID,916.176,VALID,0,VALID,70.509,VALID,0,VALID,20.9933,VALID,137,VALID,0,
2012-08-09, 01:56:05,VALID,916.124,VALID,0,VALID,70.0744,VALID,0,VALID,20.9527,VALID,137,VALID,0,
2012-08-09, 01:57:05,VALID,916.075,VALID,0,VALID,70.8444,VALID,0,VALID,20.9136,VALID,137,VALID,0,
2012-08-09, 01:58:05,VALID,916.098,VALID,0,VALID,70.791,VALID,0.107441,VALID,20.8957,VALID,137,VALID,0,
2012-08-09, 01:59:05,VALID,916.083,VALID,0,VALID,70.8901,VALID,0,VALID,20.8567,VALID,137,VALID,0,
2012-08-09, 02:00:05,VALID,916.104,VALID,0,VALID,71.2713,VALID,0,VALID,20.8161,VALID,137,VALID,0,
2012-08-09, 02:01:05,VALID,916.109,VALID,0,VALID,71.4467,VALID,0.107441,VALID,20.7771,VALID,137,VALID,0,
2012-08-09, 02:02:05,VALID,916.093,VALID,0,VALID,70.852,VALID,0.107441,VALID,20.7576,VALID,139,VALID,0,
2012-08-09, 02:03:05,VALID,916.097,VALID,0,VALID,70.8901,VALID,0.107441,VALID,20.8161,VALID,129,VALID,0,
2012-08-09, 02:04:05,VALID,916.088,VALID,0,VALID,71.3171,VALID,0,VALID,20.7966,VALID,132,VALID,0,
2012-08-09, 02:05:05,VALID,916.081,VALID,0,VALID,71.744,VALID,0,VALID,20.7576,VALID,103,VALID,0,
2012-08-09, 02:06:05,VALID,916.071,VALID,0,VALID,72.0794,VALID,0,VALID,20.6795,VALID,128,VALID,0,
2012-08-09, 02:07:05,VALID,916.026,VALID,0,VALID,70.4861,VALID,0,VALID,20.7771,VALID,141,VALID,0,
2012-08-09, 02:08:05,VALID,916.002,VALID,0,VALID,70.9588,VALID,0,VALID,20.8567,VALID,113,VALID,0,
2012-08-09, 02:09:05,VALID,915.981,VALID,0,VALID,71.3171,VALID,0,VALID,20.7771,VALID,133,VALID,0.00429688,
2012-08-09, 02:10:05,VALID,915.987,VALID,0,VALID,70.7148,VALID,0,VALID,20.7576,VALID,117,VALID,0,
2012-08-09, 02:11:05,VALID,916.002,VALID,0,VALID,71.1265,VALID,0.107441,VALID,20.7771,VALID,111,VALID,0,
2012-08-09, 02:12:05,VALID,915.976,VALID,0,VALID,71.2484,VALID,0.107441,VALID,20.7576,VALID,107,VALID,0,
2012-08-09, 02:13:05,VALID,916.006,VALID,0,VALID,71.1265,VALID,0.107441,VALID,20.6975,VALID,117,VALID,0,
2012-08-09, 02:14:05,VALID,916.007,VALID,0,VALID,71.1341,VALID,0.107441,VALID,20.7185,VALID,135,VALID,0,
2012-08-09, 02:15:05,VALID,915.996,VALID,0,VALID,71.1112,VALID,0.107441,VALID,20.7381,VALID,135,VALID,0,
2012-08-09, 02:16:05,VALID,916.024,VALID,0,VALID,71.3094,VALID,0.107441,VALID,20.7966,VALID,116,VALID,0,
2012-08-09, 02:17:05,VALID,916.005,VALID,0,VALID,71.2942,VALID,0,VALID,20.7381,VALID,124,VALID,0,
2012-08-09, 02:18:05,VALID,915.968,VALID,0,VALID,71.3018,VALID,0.107441,VALID,20.699,VALID,135,VALID,0,
2012-08-09, 02:19:05,VALID,915.932,VALID,0,VALID,71.3704,VALID,0.107441,VALID,20.6795,VALID,133,VALID,0,
2012-08-09, 02:20:05,VALID,915.919,VALID,0,VALID,70.6843,VALID,0,VALID,20.7381,VALID,126,VALID,0,
2012-08-09, 02:21:05,VALID,915.911,VALID,0,VALID,70.9359,VALID,0,VALID,20.7381,VALID,129,VALID,0,
2012-08-09, 02:22:05,VALID,915.934,VALID,0,VALID,70.7301,VALID,0.107441,VALID,20.7381,VALID,131,VALID,0,
2012-08-09, 02:23:05,VALID,915.92,VALID,0,VALID,70.4556,VALID,0,VALID,20.7381,VALID,132,VALID,0,
2012-08-09, 02:24:05,VALID,915.939,VALID,0,VALID,70.2422,VALID,0,VALID,20.8177,VALID,134,VALID,0,
2012-08-09, 02:25:05,VALID,915.943,VALID,0,VALID,70.6081,VALID,0.107441,VALID,20.7771,VALID,139,VALID,0,
2012-08-09, 02:26:05,VALID,915.946,VALID,0,VALID,70.3108,VALID,0,VALID,20.7576,VALID,139,VALID,0,
2012-08-09, 02:27:05,VALID,915.916,VALID,0,VALID,70.2803,VALID,0.107441,VALID,20.7185,VALID,139,VALID,0,
2012-08-09, 02:28:05,VALID,915.925,VALID,0,VALID,70.1735,VALID,0,VALID,20.699,VALID,153,VALID,0,
2012-08-09, 02:29:05,VALID,915.941,VALID,0,VALID,70.387,VALID,0,VALID,20.7396,VALID,147,VALID,0,
2012-08-09, 02:30:05,VALID,915.946,VALID,0,VALID,70.4175,VALID,0,VALID,20.699,VALID,140,VALID,0,
2012-08-09, 02:31:05,VALID,915.96,VALID,0,VALID,69.9067,VALID,0.107441,VALID,20.7381,VALID,138,VALID,0,
2012-08-09, 02:32:05,VALID,915.94,VALID,0,VALID,70.2345,VALID,0.107441,VALID,20.7576,VALID,129,VALID,0,
2012-08-09, 02:33:05,VALID,915.881,VALID,0,VALID,69.8076,VALID,0,VALID,20.7576,VALID,155,VALID,0,
2012-08-09, 02:34:05,VALID,915.906,VALID,0,VALID,69.9906,VALID,0,VALID,20.7576,VALID,156,VALID,0,
2012-08-09, 02:35:05,VALID,915.874,VALID,0,VALID,69.7161,VALID,0,VALID,20.7381,VALID,141,VALID,0,
2012-08-09, 02:36:05,VALID,915.899,VALID,0,VALID,69.1825,VALID,0.107441,VALID,20.7771,VALID,129,VALID,0,
2012-08-09, 02:37:05,VALID,915.864,VALID,0,VALID,69.1063,VALID,0.107441,VALID,20.795,VALID,130,VALID,0,
2012-08-09, 02:38:05,VALID,915.879,VALID,0,VALID,69.4188,VALID,0.107441,VALID,20.7755,VALID,132,VALID,0,
2012-08-09, 02:39:05,VALID,915.901,VALID,0,VALID,69.2587,VALID,0.107441,VALID,20.7966,VALID,137,VALID,0,
2012-08-09, 02:40:05,VALID,915.896,VALID,0,VALID,68.9081,VALID,0.107441,VALID,20.7771,VALID,121,VALID,0.335547,
2012-08-09, 02:41:05,VALID,915.902,VALID,0,VALID,68.9081,VALID,0,VALID,20.8177,VALID,114,VALID,0,
2012-08-09, 02:42:05,VALID,915.892,VALID,0,VALID,69.0834,VALID,0,VALID,20.8372,VALID,125,VALID,0,
2012-08-09, 02:43:05,VALID,915.884,VALID,0,VALID,68.8699,VALID,0,VALID,20.8177,VALID,117,VALID,1.00117,
2012-08-09, 02:44:05,VALID,915.883,VALID,0,VALID,68.7861,VALID,0,VALID,20.8567,VALID,106,VALID,0,
2012-08-09, 02:45:05,VALID,915.867,VALID,0,VALID,68.7785,VALID,0,VALID,20.8551,VALID,79,VALID,0.498047,
2012-08-09, 02:46:05,VALID,915.909,VALID,0,VALID,70.0135,VALID,0,VALID,20.8177,VALID,73,VALID,0,
2012-08-09, 02:47:05,VALID,915.893,VALID,0,VALID,70.631,VALID,0,VALID,20.7006,VALID,93,VALID,0,
2012-08-09, 02:48:05,VALID,915.887,VALID,0,VALID,70.8368,VALID,0,VALID,20.5836,VALID,111,VALID,0,
2012-08-09, 02:49:05,VALID,915.882,VALID,0,VALID,71.6525,VALID,0,VALID,20.486,VALID,114,VALID,0,
2012-08-09, 02:50:05,VALID,915.885,VALID,0,VALID,72.3386,VALID,0,VALID,20.3885,VALID,155,VALID,0,
2012-08-09, 02:51:05,VALID,915.89,VALID,0,VALID,72.7198,VALID,0,VALID,20.3089,VALID,155,VALID,0,
2012-08-09, 02:52:05,VALID,915.88,VALID,0,VALID,73.4897,VALID,0,VALID,20.2519,VALID,174,VALID,0,
2012-08-09, 02:53:05,VALID,915.865,VALID,0,VALID,73.9929,VALID,0,VALID,20.1544,VALID,173,VALID,0,
2012-08-09, 02:54:05,VALID,915.898,VALID,0,VALID,74.5646,VALID,0,VALID,20.0569,VALID,173,VALID,0,
2012-08-09, 02:55:05,VALID,915.857,VALID,0,VALID,75.3651,VALID,0,VALID,19.9593,VALID,173,VALID,0,
2012-08-09, 02:56:05,VALID,915.841,VALID,0,VALID,75.7234,VALID,0,VALID,19.8423,VALID,173,VALID,0,
2012-08-09, 02:57:05,VALID,915.842,VALID,0,VALID,76.5086,VALID,0,VALID,19.7448,VALID,173,VALID,0,
2012-08-09, 02:58:05,VALID,915.824,VALID,0,VALID,76.9203,VALID,0,VALID,19.5888,VALID,173,VALID,0,
2012-08-09, 02:59:05,VALID,915.768,VALID,0,VALID,77.5454,VALID,0,VALID,19.5303,VALID,173,VALID,0,
2012-08-09, 03:00:05,VALID,915.742,VALID,0,VALID,77.6369,VALID,0,VALID,19.4523,VALID,173,VALID,0,
2012-08-09, 03:01:05,VALID,915.716,VALID,0,VALID,77.6674,VALID,0,VALID,19.4327,VALID,130,VALID,0,
2012-08-09, 03:02:05,VALID,915.691,VALID,0,VALID,77.5454,VALID,0,VALID,19.4327,VALID,130,VALID,0,
2012-08-09, 03:03:05,VALID,915.734,VALID,0,VALID,77.7893,VALID,0.107441,VALID,19.4118,VALID,130,VALID,0,
2012-08-09, 03:04:05,VALID,915.711,VALID,0,VALID,77.5454,VALID,0.107441,VALID,19.3728,VALID,130,VALID,0,
2012-08-09, 03:05:05,VALID,915.69,VALID,0,VALID,77.9418,VALID,0,VALID,19.3728,VALID,130,VALID,0,
2012-08-09, 03:06:05,VALID,915.723,VALID,0,VALID,78.1324,VALID,0.107441,VALID,19.3143,VALID,130,VALID,0,
2012-08-09, 03:07:05,VALID,915.653,VALID,0,VALID,78.018,VALID,0.107441,VALID,19.2948,VALID,131,VALID,0,
2012-08-09, 03:08:04,VALID,915.682,VALID,0,VALID,77.9723,VALID,0.107441,VALID,19.2948,VALID,132,VALID,0,
2012-08-09, 03:09:04,VALID,915.664,VALID,0,VALID,78.079,VALID,0,VALID,19.2948,VALID,132,VALID,0,
2012-08-09, 03:10:04,VALID,915.699,VALID,0,VALID,78.2849,VALID,0.107441,VALID,19.2948,VALID,132,VALID,0,
2012-08-09, 03:11:04,VALID,915.665,VALID,0,VALID,78.5136,VALID,0,VALID,19.2572,VALID,132,VALID,0,
2012-08-09, 03:12:04,VALID,915.675,VALID,0,VALID,78.6737,VALID,0,VALID,19.2587,VALID,132,VALID,0,
2012-08-09, 03:13:04,VALID,915.66,VALID,0,VALID,77.8808,VALID,0,VALID,19.2377,VALID,138,VALID,0,
2012-08-09, 03:14:04,VALID,915.669,VALID,0,VALID,77.9799,VALID,0,VALID,19.2572,VALID,139,VALID,0,
2012-08-09, 03:15:04,VALID,915.662,VALID,0,VALID,77.4996,VALID,0,VALID,19.2572,VALID,139,VALID,0,
2012-08-09, 03:16:04,VALID,915.653,VALID,0,VALID,77.4158,VALID,0,VALID,19.3157,VALID,139,VALID,0,
2012-08-09, 03:17:04,VALID,915.691,VALID,0,VALID,77.9494,VALID,0,VALID,19.2962,VALID,139,VALID,0,
2012-08-09, 03:18:04,VALID,915.661,VALID,0,VALID,78.3458,VALID,0,VALID,19.2182,VALID,139,VALID,0,
2012-08-09, 03:19:04,VALID,915.657,VALID,0,VALID,78.3535,VALID,0,VALID,19.1402,VALID,139,VALID,0,
2012-08-09, 03:20:04,VALID,915.663,VALID,0,VALID,78.4602,VALID,0,VALID,19.1597,VALID,171,VALID,0,
2012-08-09, 03:21:04,VALID,915.656,VALID,0,VALID,78.2544,VALID,0,VALID,19.1207,VALID,170,VALID,0,
2012-08-09, 03:22:04,VALID,915.663,VALID,0,VALID,78.3306,VALID,0,VALID,19.1207,VALID,147,VALID,0,
2012-08-09, 03:23:04,VALID,915.618,VALID,0,VALID,78.1248,VALID,0,VALID,19.1207,VALID,142,VALID,0,
2012-08-09, 03:24:04,VALID,915.618,VALID,0,VALID,78.4602,VALID,0,VALID,19.1207,VALID,142,VALID,0,
2012-08-09, 03:25:04,VALID,915.602,VALID,0,VALID,78.4983,VALID,0,VALID,19.0817,VALID,142,VALID,0,
2012-08-09, 03:26:04,VALID,915.61,VALID,0,VALID,78.605,VALID,0,VALID,19.0442,VALID,142,VALID,0,
2012-08-09, 03:27:04,VALID,915.559,VALID,0,VALID,79.1387,VALID,0,VALID,19.0247,VALID,142,VALID,0,
2012-08-09, 03:28:04,VALID,915.624,VALID,0,VALID,79.0015,VALID,0,VALID,18.9857,VALID,142,VALID,0,
2012-08-09, 03:29:04,VALID,915.609,VALID,0,VALID,79.1844,VALID,0,VALID,18.9467,VALID,142,VALID,0,
2012-08-09, 03:30:04,VALID,915.621,VALID,0,VALID,79.3064,VALID,0,VALID,18.9062,VALID,142,VALID,0,
2012-08-09, 03:31:04,VALID,915.608,VALID,0,VALID,79.3979,VALID,0,VALID,18.8477,VALID,142,VALID,0,
2012-08-09, 03:32:04,VALID,915.596,VALID,0,VALID,79.0777,VALID,0,VALID,18.8477,VALID,142,VALID,0,
2012-08-09, 03:33:04,VALID,915.598,VALID,0,VALID,78.4754,VALID,0,VALID,18.9467,VALID,142,VALID,0,
2012-08-09, 03:34:04,VALID,915.587,VALID,0,VALID,78.1324,VALID,0,VALID,19.0037,VALID,145,VALID,0,
2012-08-09, 03:35:04,VALID,915.564,VALID,0,VALID,78.1705,VALID,0,VALID,19.0622,VALID,148,VALID,0,
2012-08-09, 03:36:04,VALID,915.609,VALID,0,VALID,78.3763,VALID,0,VALID,19.0247,VALID,161,VALID,0,
2012-08-09, 03:37:04,VALID,915.597,VALID,0,VALID,79.0472,VALID,0,VALID,18.9452,VALID,161,VALID,0,
2012-08-09, 03:38:04,VALID,915.618,VALID,0,VALID,79.3293,VALID,0,VALID,18.8882,VALID,161,VALID,0,
2012-08-09, 03:39:04,VALID,915.607,VALID,0,VALID,79.5199,VALID,0,VALID,18.8087,VALID,161,VALID,0,
2012-08-09, 03:40:04,VALID,915.599,VALID,0,VALID,80.0764,VALID,0,VALID,18.7892,VALID,161,VALID,0,
2012-08-09, 03:41:04,VALID,915.631,VALID,0,VALID,80.671,VALID,0,VALID,18.7113,VALID,175,VALID,0,
2012-08-09, 03:42:04,VALID,915.622,VALID,0,VALID,80.9683,VALID,0,VALID,18.6138,VALID,178,VALID,0,
2012-08-09, 03:43:04,VALID,915.618,VALID,0,VALID,81.4714,VALID,0,VALID,18.5553,VALID,162,VALID,0,
2012-08-09, 03:44:04,VALID,915.556,VALID,0,VALID,81.7916,VALID,0,VALID,18.4773,VALID,162,VALID,0,
2012-08-09, 03:45:04,VALID,915.607,VALID,0,VALID,81.9365,VALID,0,VALID,18.4188,VALID,179,VALID,0,
2012-08-09, 03:46:04,VALID,915.575,VALID,0,VALID,81.4714,VALID,0,VALID,18.4578,VALID,161,VALID,0,
2012-08-09, 03:47:04,VALID,915.566,VALID,0,VALID,80.4042,VALID,0,VALID,18.6918,VALID,175,VALID,0,
2012-08-09, 03:48:04,VALID,915.553,VALID,0,VALID,80.1526,VALID,0,VALID,18.7697,VALID,186,VALID,0,
2012-08-09, 03:49:04,VALID,915.582,VALID,0,VALID,80.3051,VALID,0,VALID,18.7113,VALID,185,VALID,0,
2012-08-09, 03:50:04,VALID,915.558,VALID,0,VALID,80.7625,VALID,0,VALID,18.5943,VALID,186,VALID,0,
2012-08-09, 03:51:04,VALID,915.608,VALID,0,VALID,81.1589,VALID,0,VALID,18.4954,VALID,186,VALID,0,
2012-08-09, 03:52:04,VALID,915.6,VALID,0,VALID,81.4181,VALID,0,VALID,18.3993,VALID,185,VALID,0,
2012-08-09, 03:53:04,VALID,915.591,VALID,0,VALID,81.6697,VALID,0,VALID,18.3213,VALID,185,VALID,0,
2012-08-09, 03:54:04,VALID,915.607,VALID,0,VALID,82.0737,VALID,0,VALID,18.2433,VALID,186,VALID,0,
2012-08-09, 03:55:04,VALID,915.624,VALID,0,VALID,82.2567,VALID,0,VALID,18.2252,VALID,186,VALID,0,
2012-08-09, 03:56:04,VALID,915.621,VALID,0,VALID,82.4472,VALID,0,VALID,18.2252,VALID,185,VALID,0,